[[{"header":{"parameterUnit":"m.s-1","parameterCategory":2,"la1":30.2991,"la2":30.254,"lo1":-89.0895,"lo2":-89.0444,"dy":0.0017,"dx":0.0017,"nx":28,"ny":28,"refTime":"2023-11-04T03:00:00:Z","depth":"0","parameterNumber":2,"parameterNumberName":"U-component_of_CURRENTS"},"data":[0,0,0,0,0,0,0,0,0,0,0,0,0,0,0,0,0,0,0,0,0,0,0,0,0,0,0,0,0,0,0,0,0,0,0,0,0,0,0,0,0,0,0,0,0,0,0,0,0,0,0,0,0,0,0,0,0,0,0.1591,0.1592,0,0.1632,0.1632,0.1633,0.1633,0.1632,0.1632,0.1632,0.1585,0.1584,0.1583,0,0,0,0,0,0,0,0,0,0,0,0,0,0.149,0.1492,0.1591,0.1592,0.1593,0.1632,0.1632,0.1633,0.1633,0.1632,0.1632,0.1632,0.1585,0.1584,0.1583,0,0,0,0,0,0,0,0,0,0,0,0,0,0.153,0.1493,0.1591,0.16,0.1601,0.1632,0.1632,0.1633,0.1633,0.1632,0.1632,0.1631,0.1586,0.1584,0.1583,0.1582,0,0,0.1578,0.1578,0,0,0,0,0,0,0,0,0.1528,0.1534,0.1598,0.1599,0.1601,0.1629,0.158,0.1612,0.1633,0.1618,0.1632,0.1631,0.1594,0.1592,0.1597,0.1579,0.1577,0.1578,0.1577,0.1577,0.1576,0,0,0,0,0,0,0,0.1525,0.1532,0.1604,0.1598,0.16,0.1594,0.1599,0.1586,0.1604,0.1619,0.162,0.1629,0.1594,0.1599,0.1596,0.1577,0.1578,0.1577,0.1576,0.1575,0.1573,0.1574,0,0,0,0,0,0,0.1528,0.153,0.1603,0.1606,0.1566,0.1596,0.1602,0.1618,0.1606,0.1605,0.1629,0.1629,0.1602,0.1598,0.1594,0.1627,0.1577,0.1575,0.1574,0.1573,0.1574,0.1575,0,0,0,0,0,0,0.1526,0.1535,0.1602,0.157,0.1579,0.1599,0.1617,0.1619,0.1629,0.1615,0.1612,0.1637,0.1601,0.1596,0.1604,0.1623,0.1574,0.1573,0.1572,0.1573,0.1574,0.1668,0,0,0,0,0,0,0.1523,0.1534,0.1539,0.1571,0.1581,0.163,0.1618,0.162,0.1636,0.1636,0.162,0.1616,0.1601,0.1607,0.1602,0.162,0.1572,0.1571,0.1572,0.1574,0.1664,0.1673,0.168,0,0,0,0,0,0.1519,0.1534,0.1539,0.1548,0.159,0.1632,0.1636,0.1646,0.1637,0.165,0.1646,0.1616,0.1613,0.1607,0.1602,0.1619,0.157,0.1572,0.1574,0.1661,0.1671,0.168,0,0,0,0,0,0,0.149,0.1536,0.1543,0.1569,0.1602,0.1633,0.1644,0.165,0.1658,0.1654,0.1634,0.163,0.1642,0.1616,0.161,0.1622,0.1583,0.1584,0.1651,0.166,0.1668,0.1667,0.1571,0,0,0,0,0,0.1488,0.1513,0.1555,0.1576,0.1594,0.1618,0.1632,0.1645,0.1661,0.1664,0.1658,0.1646,0.1646,0.1643,0.1635,0.1643,0.1646,0.1647,0.1655,0.1662,0.1658,0.1684,0.1695,0.1581,0.1581,0.1581,0,0,0.1482,0.1511,0.1524,0.1572,0.1595,0.163,0.1626,0.1658,0.1683,0.1656,0.168,0.1675,0.1655,0.1673,0.1674,0.1654,0.1705,0.1665,0.1671,0.1662,0.1687,0.1699,0.1709,0.1582,0.1582,0.1582,0,0,0.1494,0.1513,0.1541,0.1572,0.1617,0.1638,0.1649,0.1688,0.17,0.1728,0.1717,0.173,0.172,0.1725,0.1721,0.1763,0.1747,0.1752,0.1791,0.1818,0.1828,0.1837,0.1898,0.1911,0.1754,0.1755,0.1755,0,0.1484,0.1529,0.1554,0.1592,0.162,0.1643,0.1682,0.1702,0.1738,0.175,0.1742,0.1757,0.1747,0.1772,0.1793,0.1782,0.1802,0.1762,0.1831,0.1839,0.1846,0.1906,0.1919,0.1759,0.1759,0.1758,0.1758,0,0.1523,0.1557,0.1578,0.1635,0.1665,0.1704,0.1742,0.1768,0.1781,0.1799,0.1828,0.1831,0.1837,0.1841,0.1832,0.1876,0.1879,0.1843,0.1812,0.1864,0.1923,0.1936,0.1766,0.1764,0.1763,0.1762,0,0,0.1513,0.159,0.1598,0.1629,0.1693,0.1724,0.1768,0.1817,0.184,0.1868,0.1902,0.1919,0.1918,0.1913,0.1909,0.1933,0.2026,0.1914,0.1914,0.1985,0.2118,0.2236,0.226,0.2003,0.2005,0.2006,0.2156,0,0.1539,0.1611,0.1644,0.1707,0.1749,0.1783,0.1821,0.1861,0.1888,0.1924,0.1937,0.1961,0.1946,0.1958,0.1985,0.2006,0.2054,0.199,0.2046,0.2049,0.2155,0.2276,0.2302,0.2446,0.2167,0.2169,0.2171,0,0.157,0.1617,0.1681,0.1749,0.1768,0.18,0.1861,0.1897,0.1946,0.1967,0.1998,0.2008,0.2063,0.203,0.2114,0.2075,0.2108,0.2124,0.213,0.2208,0.2189,0.2339,0.2478,0.2377,0.2189,0.2188,0.2186,0,0.1561,0.1642,0.1691,0.1718,0.1794,0.1818,0.1851,0.1903,0.1942,0.1993,0.2033,0.2076,0.2122,0.2151,0.2219,0.2165,0.232,0.2243,0.2386,0.2395,0.2411,0.242,0.2464,0.2307,0.2307,0.2307,0.2306,0,0.1584,0.1623,0.1685,0.1715,0.1761,0.1809,0.1859,0.1894,0.1958,0.2008,0.205,0.2116,0.2153,0.2249,0.2266,0.2411,0.2371,0.2433,0.2452,0.2451,0.2461,0.2366,0.2289,0.2312,0.2311,0.231,0.2309,0,0.1571,0.1617,0.1671,0.1741,0.176,0.1786,0.1864,0.1894,0.1964,0.2036,0.2062,0.2179,0.2323,0.2398,0.2486,0.2512,0.2551,0.2651,0.2679,0.27,0.272,0.2649,0.2623,0.2527,0.2823,0.2827,0.2831,0,0.1576,0.1601,0.1671,0.1692,0.1721,0.1771,0.18,0.1878,0.1919,0.2077,0.2111,0.2297,0.2433,0.2667,0.2769,0.2899,0.2721,0.2969,0.2863,0.2776,0.2707,0.2528,0.243,0.2929,0.2933,0.2936,0.2939,0,0.1578,0.1593,0.1636,0.1673,0.1703,0.1748,0.1801,0.1845,0.1943,0.204,0.2197,0.2332,0.2625,0.281,0.3026,0.3086,0.2848,0.3041,0.292,0.2798,0.2631,0.253,0.2787,0.2967,0.2965,0.2962,0.2961,0.296,0.1571,0.1587,0.163,0.1661,0.169,0.1722,0.1748,0.1827,0.1924,0.2065,0.2212,0.2421,0.275,0.3089,0.3124,0.3234,0.3075,0.3152,0.308,0.291,0.2794,0.3157,0.3372,0.3372,0.3371,0.3371,0.3371,0,0.1576,0.1595,0.1616,0.1653,0.1664,0.1693,0.1744,0.1763,0.1865,0.2052,0.2214,0.2597,0.2867,0.3087,0.3352,0.3269,0.3054,0.316,0.2862,0.2763,0.3091,0.3072,0.3269,0.3269,0.3269,0.3269,0.3269,0.3269,0.1586,0.1607,0.1613,0.1627,0.1644,0.1644,0.1668,0.1709,0.1817,0.2045,0.2267,0.2467,0.2851,0.3206,0.3275,0.3214,0.286,0.2825,0.2654,0.2854,0.2843,0.2832,0.2795,0.2931,0.293,0.2249,0.2244,0.224]},{"header":{"parameterUnit":"m.s-1","parameterCategory":2,"la1":30.2991,"la2":30.254,"lo1":-89.0895,"lo2":-89.0444,"dy":0.0017,"dx":0.0017,"nx":28,"ny":28,"refTime":"2023-11-04T03:00:00:Z","depth":"0","parameterNumber":3,"parameterNumberName":"V-component_of_CURRENTS"},"data":[0,0,0,0,0,0,0,0,0,0,0,0,0,0,0,0,0,0,0,0,0,0,0,0,0,0,0,0,0,0,0,0,0,0,0,0,0,0,0,0,0,0,0,0,0,0,0,0,0,0,0,0,0,0,0,0,0,0,-0.0654,-0.0655,0,-0.0676,-0.0676,-0.0676,-0.0697,-0.0698,-0.0698,-0.0698,-0.0762,-0.0763,-0.0764,0,0,0,0,0,0,0,0,0,0,0,0,0,-0.0666,-0.0665,-0.0654,-0.0655,-0.0655,-0.0676,-0.0676,-0.0676,-0.0697,-0.0698,-0.0698,-0.0699,-0.0761,-0.0763,-0.0764,0,0,0,0,0,0,0,0,0,0,0,0,0,-0.067,-0.0665,-0.0654,-0.0669,-0.0671,-0.0676,-0.0676,-0.0676,-0.0697,-0.0698,-0.0698,-0.0699,-0.0761,-0.0763,-0.0764,-0.0764,0,0,-0.077,-0.0771,0,0,0,0,0,0,0,0,-0.0669,-0.0669,-0.0667,-0.0668,-0.067,-0.0686,-0.0703,-0.0708,-0.0697,-0.0686,-0.0698,-0.0699,-0.0741,-0.0744,-0.0744,-0.0767,-0.0769,-0.0771,-0.0772,-0.0773,-0.0773,0,0,0,0,0,0,0,-0.0669,-0.0669,-0.0661,-0.0667,-0.0669,-0.0687,-0.0687,-0.0704,-0.0709,-0.0687,-0.0689,-0.0693,-0.0742,-0.0742,-0.0746,-0.077,-0.077,-0.0772,-0.0773,-0.0774,-0.0849,-0.0849,0,0,0,0,0,0,-0.0667,-0.0668,-0.0661,-0.0662,-0.0673,-0.0686,-0.0687,-0.0679,-0.0708,-0.0713,-0.0693,-0.0694,-0.0738,-0.0744,-0.0748,-0.0767,-0.0773,-0.0774,-0.0775,-0.0848,-0.0849,-0.085,0,0,0,0,0,0,-0.0667,-0.0665,-0.066,-0.0668,-0.0668,-0.0685,-0.0676,-0.0679,-0.0682,-0.0712,-0.0718,-0.0693,-0.0739,-0.0746,-0.0762,-0.0769,-0.0775,-0.0777,-0.0847,-0.0848,-0.0849,-0.0793,0,0,0,0,0,0,-0.0667,-0.0665,-0.0652,-0.0667,-0.0668,-0.066,-0.0676,-0.0679,-0.0685,-0.0687,-0.0715,-0.0721,-0.074,-0.0759,-0.0764,-0.0772,-0.0778,-0.0846,-0.0847,-0.0849,-0.0794,-0.0792,-0.0791,0,0,0,0,0,-0.0667,-0.0643,-0.0651,-0.065,-0.0651,-0.066,-0.0662,-0.0676,-0.0684,-0.0681,-0.0701,-0.072,-0.0773,-0.076,-0.0766,-0.0775,-0.0845,-0.0847,-0.0849,-0.0795,-0.0793,-0.0791,0,0,0,0,0,0,-0.0627,-0.0644,-0.0653,-0.0631,-0.0646,-0.0664,-0.0658,-0.0673,-0.0684,-0.0686,-0.0716,-0.0723,-0.0744,-0.077,-0.0755,-0.0806,-0.0819,-0.0822,-0.0776,-0.0774,-0.0772,-0.0748,-0.078,0,0,0,0,0,-0.0615,-0.0609,-0.063,-0.0611,-0.0619,-0.0639,-0.0643,-0.0656,-0.0672,-0.0677,-0.0698,-0.0729,-0.0756,-0.0771,-0.0796,-0.0813,-0.0822,-0.0831,-0.0829,-0.0827,-0.0815,-0.0836,-0.0834,-0.0856,-0.0856,-0.0856,0,0,-0.0594,-0.0602,-0.0597,-0.0604,-0.0615,-0.0622,-0.0642,-0.0645,-0.0653,-0.0682,-0.0692,-0.0718,-0.0759,-0.078,-0.0794,-0.0801,-0.0825,-0.0829,-0.0827,-0.0815,-0.0838,-0.0835,-0.0833,-0.0857,-0.0857,-0.0857,0,0,-0.0557,-0.0557,-0.0547,-0.0562,-0.0582,-0.0599,-0.0601,-0.0623,-0.0634,-0.0646,-0.0677,-0.0698,-0.0738,-0.0765,-0.0786,-0.0792,-0.0814,-0.0818,-0.0789,-0.081,-0.0807,-0.0805,-0.0801,-0.0799,-0.0819,-0.0819,-0.0819,0,-0.0531,-0.0523,-0.0544,-0.0545,-0.0554,-0.0589,-0.0587,-0.0603,-0.0628,-0.0634,-0.0645,-0.0697,-0.0729,-0.0757,-0.0763,-0.0785,-0.0795,-0.0786,-0.0804,-0.0803,-0.0801,-0.0798,-0.0797,-0.0817,-0.0817,-0.0817,-0.0818,0,-0.0497,-0.0495,-0.0489,-0.0507,-0.0518,-0.052,-0.0554,-0.0566,-0.0585,-0.0602,-0.0625,-0.066,-0.0692,-0.0716,-0.0738,-0.0757,-0.0764,-0.0793,-0.0798,-0.0795,-0.0793,-0.0792,-0.0813,-0.0814,-0.0815,-0.0816,0,0,-0.0432,-0.0461,-0.046,-0.0466,-0.0501,-0.0503,-0.0521,-0.0542,-0.0544,-0.0573,-0.0574,-0.0623,-0.0639,-0.0664,-0.0702,-0.072,-0.0717,-0.0749,-0.0752,-0.0726,-0.0745,-0.071,-0.0707,-0.0751,-0.0751,-0.0751,-0.0741,0,-0.0402,-0.0395,-0.0422,-0.0419,-0.0422,-0.0464,-0.0473,-0.0497,-0.052,-0.0528,-0.0569,-0.0582,-0.0624,-0.0633,-0.0659,-0.07,-0.0716,-0.0716,-0.0769,-0.077,-0.0724,-0.0705,-0.0626,-0.0608,-0.074,-0.074,-0.074,0,-0.0364,-0.0368,-0.036,-0.0381,-0.0384,-0.0388,-0.0408,-0.0423,-0.0454,-0.0467,-0.0492,-0.0522,-0.0549,-0.0587,-0.0642,-0.0641,-0.0687,-0.0718,-0.072,-0.0704,-0.0734,-0.0639,-0.0602,-0.0773,-0.0739,-0.0739,-0.0739,0,-0.0313,-0.0324,-0.0317,-0.0325,-0.0353,-0.0354,-0.0368,-0.0397,-0.039,-0.0424,-0.0404,-0.0464,-0.0459,-0.0537,-0.0595,-0.0625,-0.0641,-0.0698,-0.0708,-0.0706,-0.0656,-0.0649,-0.0771,-0.0739,-0.0739,-0.0739,-0.0739,0,-0.0275,-0.0267,-0.029,-0.0287,-0.0266,-0.0306,-0.0286,-0.0311,-0.0318,-0.0267,-0.036,-0.0311,-0.0445,-0.0469,-0.0561,-0.0605,-0.0617,-0.0684,-0.0699,-0.0634,-0.0626,-0.0787,-0.0902,-0.0739,-0.0739,-0.0739,-0.0739,0,-0.0222,-0.0241,-0.0228,-0.0244,-0.0243,-0.0227,-0.0218,-0.0196,-0.0217,-0.015,-0.0147,-0.0183,-0.0203,-0.0328,-0.0426,-0.0525,-0.0673,-0.0621,-0.0519,-0.0523,-0.0711,-0.0824,-0.0933,-0.1013,-0.0641,-0.064,-0.064,0,-0.0191,-0.0183,-0.0182,-0.0156,-0.016,-0.0141,-0.0118,-0.0142,-0.0094,-0.0034,0.0028,0.0012,0.0071,-0.0073,-0.0266,-0.0418,-0.0602,-0.0481,-0.0538,-0.0693,-0.0832,-0.0912,-0.0979,-0.0447,-0.0445,-0.0443,-0.0441,0,-0.0127,-0.013,-0.0115,-0.0064,-0.0033,0.0003,0.0049,0.0114,0.0136,0.023,0.0381,0.0432,0.0287,0.02,-0.0061,-0.0203,-0.0589,-0.0448,-0.0642,-0.0709,-0.0771,-0.0861,-0.0478,-0.0425,-0.0426,-0.0427,-0.0428,-0.0429,-0.0061,-0.0029,0.0004,0.0057,0.01,0.0192,0.0285,0.0371,0.0519,0.0726,0.0711,0.0877,0.0636,0.0311,0.0035,-0.0414,-0.0472,-0.0533,-0.0659,-0.0727,-0.0805,-0.037,-0.0321,-0.0322,-0.0323,-0.0324,-0.0324,0,0.0047,0.0082,0.0132,0.0226,0.0322,0.03,0.044,0.0571,0.0832,0.1004,0.1181,0.124,0.0898,0.0452,-0.015,-0.0528,-0.0714,-0.0758,-0.0877,-0.094,-0.0564,-0.0558,-0.0518,-0.0518,-0.0517,-0.0517,-0.0517,-0.0517,0.0118,0.0201,0.0224,0.0422,0.0498,0.0662,0.0772,0.0962,0.1127,0.1447,0.1625,0.1716,0.1432,0.0277,-0.0599,-0.0837,-0.1142,-0.1163,-0.1374,-0.1146,-0.1136,-0.1127,-0.1149,-0.1233,-0.1235,-0.1664,-0.1669,-0.1672]}],[{"header":{"parameterUnit":"m.s-1","parameterCategory":2,"la1":30.2991,"la2":30.254,"lo1":-89.0895,"lo2":-89.0444,"dy":0.0017,"dx":0.0017,"nx":28,"ny":28,"refTime":"2023-11-04T03:00:00:Z","depth":"2","parameterNumber":2,"parameterNumberName":"U-component_of_CURRENTS"},"data":[0,0,0,0,0,0,0,0,0,0,0,0,0,0,0,0,0,0,0,0,0,0,0,0,0,0,0,0,0,0,0,0,0,0,0,0,0,0,0,0,0,0,0,0,0,0,0,0,0,0,0,0,0,0,0,0,0,0,0.1568,0.1568,0,0.1654,0.1656,0.1657,0.1702,0.1702,0.1702,0.1702,0.1759,0.176,0.1762,0,0,0,0,0,0,0,0,0,0,0,0,0,0.1478,0.1479,0.1568,0.1569,0.157,0.1654,0.1656,0.1657,0.1702,0.1702,0.1702,0.1702,0.1758,0.176,0.1762,0,0,0,0,0,0,0,0,0,0,0,0,0,0.1536,0.1479,0.1567,0.1602,0.1606,0.1654,0.1656,0.1657,0.1702,0.1702,0.1702,0.1702,0.1758,0.176,0.1762,0.1777,0,0,0.1769,0.177,0,0,0,0,0,0,0,0,0.1533,0.154,0.1596,0.1599,0.1604,0.1667,0.1645,0.1695,0.1702,0.1666,0.1702,0.1702,0.1725,0.173,0.1748,0.1779,0.1782,0.177,0.1771,0.1772,0.1773,0,0,0,0,0,0,0,0.1529,0.1536,0.1603,0.1597,0.1602,0.1626,0.1634,0.1655,0.1694,0.1669,0.1672,0.1681,0.1727,0.1745,0.1749,0.1782,0.177,0.1772,0.1773,0.1774,0.1868,0.1869,0,0,0,0,0,0,0.1515,0.1532,0.16,0.1605,0.1567,0.1627,0.1636,0.1647,0.1695,0.1702,0.1681,0.1683,0.1741,0.1747,0.1751,0.18,0.1772,0.1774,0.1775,0.1867,0.1868,0.1869,0,0,0,0,0,0,0.1513,0.152,0.1596,0.157,0.1581,0.1628,0.164,0.1649,0.1672,0.1704,0.1711,0.1696,0.1742,0.1748,0.1775,0.1801,0.1775,0.1777,0.1865,0.1867,0.1869,0.1877,0,0,0,0,0,0,0.151,0.1519,0.1526,0.1569,0.1582,0.1632,0.1641,0.165,0.1677,0.168,0.1719,0.1724,0.1742,0.1772,0.1778,0.1804,0.1779,0.1864,0.1866,0.1868,0.1876,0.1879,0.1882,0,0,0,0,0,0.1506,0.1524,0.1526,0.1535,0.159,0.1633,0.1642,0.1676,0.1677,0.1695,0.1715,0.1723,0.179,0.1774,0.1781,0.1808,0.1863,0.1865,0.1868,0.1874,0.1878,0.1882,0,0,0,0,0,0,0.1489,0.1531,0.1535,0.1563,0.1594,0.164,0.1662,0.1676,0.1707,0.1709,0.1731,0.1738,0.1772,0.1788,0.177,0.1843,0.1831,0.1835,0.1833,0.1838,0.1841,0.1851,0.1781,0,0,0,0,0,0.1486,0.151,0.1547,0.1567,0.1584,0.1619,0.164,0.1661,0.1692,0.1707,0.1734,0.1763,0.1788,0.1809,0.1834,0.187,0.1895,0.1895,0.1898,0.1901,0.1915,0.1948,0.1955,0.1877,0.1877,0.1877,0,0,0.1482,0.1509,0.1521,0.1565,0.1592,0.1633,0.1633,0.1669,0.1707,0.1706,0.1764,0.177,0.1798,0.184,0.1858,0.1857,0.1942,0.1904,0.1906,0.1919,0.1951,0.1959,0.1965,0.1879,0.1879,0.1879,0,0,0.1495,0.1512,0.1539,0.1573,0.1616,0.1642,0.165,0.1698,0.1724,0.1766,0.1776,0.1796,0.1845,0.1872,0.189,0.1926,0.195,0.1936,0.197,0.2002,0.2008,0.2014,0.2076,0.2088,0.1946,0.1946,0.1947,0,0.1488,0.1532,0.1552,0.1596,0.1631,0.1647,0.1691,0.1723,0.1774,0.1794,0.1787,0.1851,0.1865,0.1918,0.1931,0.1935,0.1964,0.1949,0.2005,0.2011,0.2017,0.2079,0.2092,0.1947,0.1947,0.1947,0.1947,0,0.1525,0.1569,0.159,0.1651,0.1687,0.1728,0.1772,0.1806,0.1824,0.1849,0.1893,0.1909,0.1947,0.1954,0.1955,0.2009,0.2022,0.1996,0.1991,0.2026,0.2089,0.2102,0.1948,0.1948,0.1948,0.1948,0,0,0.1499,0.1596,0.1607,0.165,0.1724,0.1757,0.1818,0.1874,0.1908,0.194,0.1987,0.2018,0.2009,0.2029,0.203,0.2059,0.2123,0.2049,0.205,0.2106,0.2222,0.2207,0.222,0.2101,0.2103,0.2104,0.2257,0,0.1526,0.1616,0.1656,0.1742,0.1797,0.1839,0.1893,0.1941,0.1972,0.2019,0.203,0.2068,0.2044,0.2057,0.2081,0.2109,0.2154,0.2087,0.2186,0.219,0.2167,0.2232,0.2019,0.2134,0.2269,0.2271,0.2273,0,0.1554,0.1618,0.1706,0.1803,0.1826,0.187,0.1952,0.2001,0.2059,0.2081,0.2113,0.2122,0.2177,0.2136,0.2224,0.2181,0.221,0.2229,0.2235,0.2227,0.2198,0.2119,0.2152,0.2294,0.2292,0.2291,0.2289,0,0.1543,0.1652,0.1723,0.1762,0.1868,0.1904,0.1946,0.2013,0.2058,0.212,0.2154,0.2202,0.2243,0.2273,0.2332,0.2276,0.2437,0.2359,0.2385,0.2386,0.2229,0.2212,0.2428,0.2428,0.2428,0.2427,0.2427,0,0.1566,0.1625,0.1721,0.1767,0.1834,0.1903,0.1967,0.2012,0.2084,0.2142,0.2177,0.2247,0.2276,0.2368,0.2383,0.2457,0.2488,0.242,0.2426,0.2229,0.2212,0.2357,0.2347,0.2433,0.2432,0.2431,0.243,0,0.1555,0.1617,0.1707,0.1812,0.1836,0.1882,0.1971,0.2009,0.2087,0.2169,0.2195,0.2306,0.2431,0.2495,0.2585,0.2539,0.2598,0.2619,0.2411,0.2389,0.2507,0.2496,0.2628,0.2629,0.263,0.263,0.2631,0,0.157,0.1618,0.1724,0.175,0.1794,0.1865,0.1901,0.1992,0.2042,0.2215,0.2252,0.2415,0.2497,0.2651,0.2636,0.2687,0.272,0.2503,0.2334,0.2536,0.2529,0.2517,0.2505,0.2143,0.214,0.2137,0.2135,0,0.16,0.1627,0.1682,0.1738,0.1777,0.1837,0.1903,0.1951,0.2072,0.2163,0.2318,0.2402,0.2538,0.2493,0.2561,0.2546,0.2462,0.2444,0.2726,0.2123,0.209,0.208,0.2081,0.2109,0.2111,0.2113,0.2115,0.2116,0.1609,0.1634,0.1686,0.1729,0.1764,0.181,0.185,0.1916,0.2015,0.2099,0.2244,0.2281,0.2311,0.2293,0.2274,0.2255,0.2388,0.2236,0.224,0.2248,0.2162,0.2131,0.2145,0.2147,0.215,0.2152,0.2153,0,0.163,0.1641,0.1674,0.1723,0.1742,0.1774,0.185,0.1851,0.1931,0.1983,0.2051,0.1899,0.1887,0.1963,0.1875,0.1867,0.1788,0.1807,0.1671,0.1701,0.1726,0.1606,0.1445,0.1443,0.144,0.1438,0,0,0.1638,0.1658,0.1668,0.1698,0.1719,0.1748,0.1785,0.1744,0.1765,0.1704,0.1684,0.1751,0.1876,0.1614,0.1601,0.1518,0.1589,0.1462,0.2034,0.1904,0.1926,0.1987,0.184,0,0,0,0,0]},{"header":{"parameterUnit":"m.s-1","parameterCategory":2,"la1":30.2991,"la2":30.254,"lo1":-89.0895,"lo2":-89.0444,"dy":0.0017,"dx":0.0017,"nx":28,"ny":28,"refTime":"2023-11-04T03:00:00:Z","depth":"2","parameterNumber":3,"parameterNumberName":"V-component_of_CURRENTS"},"data":[0,0,0,0,0,0,0,0,0,0,0,0,0,0,0,0,0,0,0,0,0,0,0,0,0,0,0,0,0,0,0,0,0,0,0,0,0,0,0,0,0,0,0,0,0,0,0,0,0,0,0,0,0,0,0,0,0,0,-0.0183,-0.0183,0,-0.0257,-0.0258,-0.0259,-0.0329,-0.0329,-0.033,-0.0331,-0.0339,-0.0339,-0.0339,0,0,0,0,0,0,0,0,0,0,0,0,0,-0.0144,-0.0144,-0.0183,-0.0183,-0.0184,-0.0257,-0.0258,-0.0259,-0.0328,-0.0329,-0.033,-0.0331,-0.034,-0.0339,-0.0339,0,0,0,0,0,0,0,0,0,0,0,0,0,-0.0185,-0.0144,-0.0182,-0.0226,-0.0231,-0.0257,-0.0258,-0.026,-0.0328,-0.0329,-0.033,-0.0331,-0.034,-0.0339,-0.0339,-0.0313,0,0,-0.0337,-0.0336,0,0,0,0,0,0,0,0,-0.0183,-0.0187,-0.0219,-0.0223,-0.0228,-0.0283,-0.0248,-0.0274,-0.0328,-0.0293,-0.0331,-0.0332,-0.0313,-0.0314,-0.0329,-0.0314,-0.0314,-0.0337,-0.0336,-0.0336,-0.0336,0,0,0,0,0,0,0,-0.018,-0.0184,-0.0214,-0.022,-0.0225,-0.0257,-0.0264,-0.0254,-0.0296,-0.0296,-0.0301,-0.0306,-0.0315,-0.033,-0.033,-0.0314,-0.0337,-0.0336,-0.0336,-0.0335,-0.034,-0.0341,0,0,0,0,0,0,-0.0164,-0.0181,-0.0211,-0.0216,-0.0206,-0.0256,-0.0264,-0.0266,-0.0298,-0.0304,-0.0305,-0.0309,-0.033,-0.033,-0.033,-0.0361,-0.0336,-0.0335,-0.0335,-0.034,-0.034,-0.0341,0,0,0,0,0,0,-0.0162,-0.0165,-0.0208,-0.0199,-0.0207,-0.0255,-0.0257,-0.0267,-0.029,-0.0305,-0.031,-0.0319,-0.0331,-0.0331,-0.035,-0.0359,-0.0335,-0.0334,-0.0339,-0.034,-0.0341,-0.0384,0,0,0,0,0,0,-0.0161,-0.0164,-0.0166,-0.0198,-0.0207,-0.0219,-0.0256,-0.0267,-0.029,-0.0296,-0.0318,-0.032,-0.0332,-0.0351,-0.0349,-0.0358,-0.0334,-0.0338,-0.0339,-0.034,-0.0382,-0.0386,-0.039,0,0,0,0,0,-0.0159,-0.0154,-0.0166,-0.017,-0.0205,-0.0218,-0.0225,-0.0265,-0.0289,-0.0292,-0.033,-0.032,-0.0355,-0.0351,-0.0349,-0.0358,-0.0338,-0.0339,-0.034,-0.038,-0.0385,-0.039,0,0,0,0,0,0,-0.0139,-0.0161,-0.0175,-0.0177,-0.0193,-0.0229,-0.0234,-0.0262,-0.0295,-0.0303,-0.0328,-0.0332,-0.0352,-0.0344,-0.0339,-0.0362,-0.0343,-0.0344,-0.0374,-0.0379,-0.0383,-0.0342,-0.0333,0,0,0,0,0,-0.0133,-0.0135,-0.0158,-0.0159,-0.0161,-0.0197,-0.0211,-0.0235,-0.0264,-0.0281,-0.0304,-0.0326,-0.0352,-0.0358,-0.0368,-0.0374,-0.0362,-0.0377,-0.0381,-0.0384,-0.035,-0.0369,-0.0371,-0.0345,-0.0345,-0.0345,0,0,-0.0126,-0.0137,-0.014,-0.0155,-0.0169,-0.0181,-0.0208,-0.0219,-0.0244,-0.0272,-0.0309,-0.0335,-0.0357,-0.0382,-0.0388,-0.0378,-0.039,-0.0385,-0.0389,-0.0351,-0.037,-0.0373,-0.0375,-0.0345,-0.0345,-0.0345,0,0,-0.0106,-0.0118,-0.0111,-0.0125,-0.0141,-0.0164,-0.0166,-0.0199,-0.0226,-0.0257,-0.03,-0.0331,-0.0354,-0.0386,-0.0403,-0.0423,-0.0412,-0.0429,-0.0415,-0.0436,-0.0438,-0.0439,-0.0449,-0.0451,-0.043,-0.0431,-0.0431,0,-0.0098,-0.0092,-0.0111,-0.0112,-0.0122,-0.0156,-0.0156,-0.019,-0.0234,-0.0247,-0.0266,-0.0325,-0.0354,-0.0392,-0.0418,-0.043,-0.0435,-0.0403,-0.0441,-0.0442,-0.0443,-0.0452,-0.0454,-0.0433,-0.0433,-0.0432,-0.0432,0,-0.0072,-0.0076,-0.0069,-0.0087,-0.0104,-0.0101,-0.0145,-0.0166,-0.0201,-0.0235,-0.0268,-0.0317,-0.0346,-0.0376,-0.0409,-0.0435,-0.0436,-0.0448,-0.043,-0.0448,-0.0457,-0.0458,-0.0436,-0.0435,-0.0435,-0.0434,0,0,-0.0034,-0.0046,-0.0047,-0.0049,-0.0086,-0.0094,-0.0129,-0.0156,-0.0171,-0.0219,-0.0232,-0.0306,-0.0324,-0.0342,-0.0389,-0.0412,-0.0456,-0.0434,-0.0434,-0.0442,-0.0495,-0.0465,-0.0463,-0.0484,-0.0484,-0.0484,-0.0507,0,-0.0003,0.0005,-0.0014,-0.002,-0.0021,-0.0061,-0.0089,-0.0129,-0.0163,-0.0186,-0.0234,-0.0264,-0.0318,-0.0335,-0.0373,-0.0425,-0.0455,-0.0447,-0.0473,-0.0473,-0.0444,-0.0462,-0.0456,-0.0471,-0.0507,-0.0507,-0.0507,0,0.0029,0.0026,0.0034,0.0017,0.0016,-0.0002,-0.0033,-0.0059,-0.0107,-0.0126,-0.016,-0.02,-0.025,-0.0288,-0.0369,-0.0364,-0.0425,-0.0464,-0.0467,-0.041,-0.0443,-0.0454,-0.0471,-0.0508,-0.0508,-0.0508,-0.0508,0,0.0064,0.0062,0.0072,0.0062,0.0032,0.0026,0.0007,-0.0041,-0.0037,-0.0085,-0.0069,-0.0147,-0.0156,-0.0245,-0.0334,-0.0361,-0.04,-0.0453,-0.0479,-0.0477,-0.0456,-0.0452,-0.05,-0.05,-0.05,-0.05,-0.05,0,0.0108,0.0112,0.0089,0.0088,0.0104,0.0058,0.0075,0.0045,0.0031,0.0072,-0.003,0.0008,-0.0143,-0.0187,-0.0298,-0.0369,-0.0378,-0.0456,-0.0476,-0.0473,-0.047,-0.0481,-0.0478,-0.0501,-0.0501,-0.0501,-0.0501,0,0.0142,0.0137,0.014,0.0116,0.0121,0.0122,0.0141,0.0158,0.0131,0.0187,0.0184,0.0129,0.0078,-0.0063,-0.0187,-0.0294,-0.0388,-0.0415,-0.0391,-0.0406,-0.0468,-0.0467,-0.046,-0.0459,-0.0458,-0.0457,-0.0457,0,0.0155,0.0159,0.016,0.0186,0.0183,0.0195,0.0221,0.0206,0.0251,0.0292,0.0345,0.03,0.0305,0.0128,-0.0085,-0.0271,-0.0311,-0.0379,-0.0432,-0.0441,-0.0461,-0.0462,-0.0462,-0.0438,-0.0437,-0.0437,-0.0436,0,0.0171,0.0173,0.0192,0.0241,0.0276,0.0326,0.0372,0.0437,0.0459,0.0517,0.0616,0.0618,0.0438,0.0248,-0.0026,-0.0151,-0.0357,-0.0371,-0.0386,-0.0437,-0.0419,-0.0439,-0.0441,-0.0431,-0.0432,-0.0432,-0.0432,-0.0433,0.0188,0.0215,0.0255,0.0313,0.0371,0.0471,0.0534,0.0609,0.0719,0.0807,0.0813,0.08,0.0552,0.0203,-0.0022,-0.028,-0.0285,-0.0395,-0.0398,-0.0401,-0.0382,-0.0362,-0.036,-0.0361,-0.0361,-0.0361,-0.0361,0,0.0228,0.028,0.0329,0.043,0.0518,0.0524,0.0652,0.0717,0.0872,0.0925,0.0976,0.0774,0.054,0.0268,-0.0121,-0.0341,-0.0382,-0.0393,-0.0421,-0.0424,-0.0427,-0.0412,-0.0397,-0.0398,-0.0398,-0.0399,0,0,0.0267,0.0344,0.038,0.0547,0.0619,0.0735,0.0812,0.0907,0.0961,0.1029,0.1006,0.0912,0.0602,0.0317,0.0013,-0.0198,-0.0255,-0.0227,-0.0176,-0.0177,-0.0177,-0.0408,-0.0383,0,0,0,0,0]}],[{"header":{"parameterUnit":"m.s-1","parameterCategory":2,"la1":30.2991,"la2":30.254,"lo1":-89.0895,"lo2":-89.0444,"dy":0.0017,"dx":0.0017,"nx":28,"ny":28,"refTime":"2023-11-04T03:00:00:Z","depth":"4","parameterNumber":2,"parameterNumberName":"U-component_of_CURRENTS"},"data":[0,0,0,0,0,0,0,0,0,0,0,0,0,0,0,0,0,0,0,0,0,0,0,0,0,0,0,0,0,0,0,0,0,0,0,0,0,0,0,0,0,0,0,0,0,0,0,0,0,0,0,0,0,0,0,0,0,0,0.0828,0.0828,0,0.0848,0.0848,0.0848,0.0875,0.0876,0.0876,0.0877,0.0996,0.0998,0.1001,0,0,0,0,0,0,0,0,0,0,0,0,0,0.0773,0.0774,0.0828,0.0828,0.0829,0.0848,0.0848,0.0848,0.0875,0.0876,0.0877,0.0877,0.0995,0.0998,0.1001,0,0,0,0,0,0,0,0,0,0,0,0,0,0.0793,0.0774,0.0828,0.0847,0.0849,0.0848,0.0848,0.0848,0.0875,0.0876,0.0877,0.0878,0.0994,0.0998,0.1001,0.1003,0,0,0.1013,0.1014,0,0,0,0,0,0,0,0,0.0792,0.0794,0.0843,0.0846,0.0848,0.0863,0.0873,0.0906,0.0874,0.0862,0.0877,0.0878,0.0962,0.0968,0.0964,0.1009,0.1014,0.1013,0.1015,0.1017,0.1018,0,0,0,0,0,0,0,0.079,0.0794,0.0833,0.0844,0.0847,0.0841,0.0845,0.0878,0.0905,0.0863,0.0866,0.0872,0.0963,0.096,0.0967,0.1015,0.1013,0.1016,0.1019,0.102,0.1075,0.1074,0,0,0,0,0,0,0.0795,0.0792,0.0832,0.0834,0.0825,0.0842,0.0846,0.0854,0.0902,0.0911,0.0871,0.0874,0.0953,0.0963,0.0972,0.1028,0.1017,0.102,0.1022,0.1076,0.1075,0.1074,0,0,0,0,0,0,0.0794,0.0798,0.0832,0.0816,0.082,0.0842,0.0851,0.0854,0.0884,0.0908,0.0918,0.0901,0.0954,0.0966,0.0955,0.1032,0.1022,0.1025,0.1077,0.1076,0.1074,0.111,0,0,0,0,0,0,0.0792,0.0798,0.0811,0.0816,0.0821,0.0847,0.085,0.0854,0.0885,0.0889,0.0937,0.0947,0.0956,0.0948,0.0958,0.1037,0.1028,0.1078,0.1076,0.1075,0.111,0.111,0.111,0,0,0,0,0,0.079,0.0801,0.0811,0.0817,0.0837,0.0848,0.085,0.0866,0.0886,0.0897,0.0879,0.0947,0.0949,0.0948,0.0961,0.1043,0.1078,0.1077,0.1075,0.111,0.111,0.111,0,0,0,0,0,0,0.079,0.0805,0.0817,0.0835,0.0849,0.0854,0.0869,0.0884,0.0882,0.089,0.0909,0.0915,0.095,0.0961,0.0961,0.1046,0.1039,0.1039,0.1061,0.1061,0.1062,0.11,0.1031,0,0,0,0,0,0.0795,0.0806,0.0822,0.0839,0.085,0.0867,0.0879,0.0892,0.0889,0.0893,0.0926,0.0942,0.0948,0.0971,0.0984,0.1017,0.1045,0.1081,0.1082,0.1082,0.1116,0.1158,0.1167,0.1068,0.1068,0.1068,0,0,0.0802,0.0811,0.082,0.084,0.0855,0.0871,0.0877,0.0904,0.0919,0.0907,0.0944,0.0951,0.095,0.0976,0.0999,0.1002,0.112,0.108,0.1081,0.1116,0.1158,0.1168,0.1177,0.1067,0.1067,0.1067,0,0,0.0808,0.0831,0.084,0.0846,0.0871,0.0891,0.0908,0.0936,0.0952,0.0961,0.0958,0.0984,0.1014,0.1025,0.103,0.1039,0.1115,0.107,0.1123,0.1162,0.1172,0.1181,0.122,0.1232,0.1078,0.1078,0.1078,0,0.0815,0.083,0.0846,0.0847,0.0861,0.0906,0.0921,0.0938,0.096,0.0981,0.0981,0.1031,0.1042,0.1071,0.1069,0.1056,0.1081,0.1126,0.1168,0.1178,0.1187,0.1224,0.1237,0.1079,0.1079,0.1079,0.1079,0,0.0818,0.0832,0.0841,0.0864,0.0881,0.0904,0.0931,0.0975,0.1018,0.1041,0.1096,0.1084,0.1129,0.114,0.1107,0.1187,0.1185,0.1161,0.1179,0.12,0.1236,0.1249,0.1082,0.1081,0.1081,0.108,0,0,0.0819,0.0841,0.0844,0.0853,0.0892,0.0908,0.0954,0.1009,0.1056,0.1102,0.1165,0.1179,0.1224,0.1229,0.1226,0.1258,0.1331,0.1247,0.1248,0.1308,0.1429,0.1316,0.132,0.1319,0.1322,0.1324,0.1427,0,0.0821,0.0822,0.0846,0.0873,0.0878,0.0933,0.0965,0.1018,0.1081,0.1156,0.1196,0.1251,0.1241,0.1277,0.1313,0.1334,0.137,0.1307,0.1382,0.1385,0.1301,0.1332,0.1332,0.1437,0.144,0.1442,0.1444,0,0.0811,0.081,0.0825,0.0864,0.0878,0.0919,0.1009,0.1054,0.1158,0.1188,0.1281,0.1331,0.1419,0.1386,0.1483,0.1447,0.1455,0.1457,0.146,0.1362,0.1296,0.1411,0.1468,0.1466,0.1465,0.1463,0.1461,0,0.0774,0.0803,0.0821,0.0824,0.0874,0.0922,0.0995,0.1084,0.1136,0.1256,0.1315,0.1413,0.1484,0.153,0.1559,0.1542,0.1636,0.1609,0.1513,0.1505,0.1565,0.1554,0.1668,0.1668,0.1668,0.1667,0.1667,0,0.0751,0.0764,0.0813,0.0811,0.0866,0.0915,0.1006,0.1076,0.1185,0.1247,0.1364,0.142,0.1525,0.1593,0.1603,0.1605,0.1682,0.1548,0.1531,0.1571,0.156,0.1574,0.1562,0.1671,0.167,0.167,0.1669,0,0.0703,0.0733,0.0746,0.0805,0.0847,0.0894,0.103,0.1085,0.119,0.1287,0.1337,0.1471,0.156,0.1629,0.1693,0.165,0.1658,0.1621,0.1674,0.1654,0.15,0.1488,0.1576,0.1573,0.1571,0.1569,0.1567,0,0.0676,0.0672,0.0736,0.0769,0.0816,0.0901,0.096,0.1076,0.1135,0.1287,0.1328,0.147,0.1534,0.1572,0.1624,0.1657,0.1612,0.1613,0.1558,0.152,0.1495,0.1487,0.1479,0.1563,0.1562,0.1562,0.1561,0,0.061,0.0641,0.0651,0.0731,0.0803,0.0859,0.0968,0.0995,0.1113,0.1215,0.1294,0.1362,0.1448,0.1517,0.1537,0.1542,0.1624,0.1587,0.1592,0.154,0.1504,0.148,0.1475,0.1552,0.1553,0.1554,0.1555,0,0.0555,0.0556,0.06,0.0672,0.0759,0.0809,0.0865,0.094,0.1014,0.1175,0.1183,0.1315,0.142,0.1455,0.147,0.148,0.1471,0.1418,0.1432,0.1443,0.1347,0.1279,0.1265,0,0,0,0,0,0.0478,0.0488,0.0549,0.0613,0.0709,0.077,0.0862,0.091,0.1014,0.1041,0.1113,0.1181,0.1248,0.1325,0.1314,0.1412,0.1467,0.1391,0.141,0.1503,0.1513,0.141,0,0,0,0,0,0,0.0421,0.0458,0.0506,0.057,0.0618,0.071,0.0759,0.0826,0.0857,0.0966,0.1026,0.1107,0.1208,0.1247,0.1293,0.1311,0.1297,0.1469,0.1466,0.1497,0.1507,0.1515,0.1412,0,0,0,0,0]},{"header":{"parameterUnit":"m.s-1","parameterCategory":2,"la1":30.2991,"la2":30.254,"lo1":-89.0895,"lo2":-89.0444,"dy":0.0017,"dx":0.0017,"nx":28,"ny":28,"refTime":"2023-11-04T03:00:00:Z","depth":"4","parameterNumber":3,"parameterNumberName":"V-component_of_CURRENTS"},"data":[0,0,0,0,0,0,0,0,0,0,0,0,0,0,0,0,0,0,0,0,0,0,0,0,0,0,0,0,0,0,0,0,0,0,0,0,0,0,0,0,0,0,0,0,0,0,0,0,0,0,0,0,0,0,0,0,0,0,0.014,0.014,0,0.0175,0.0176,0.0177,0.0212,0.0213,0.0213,0.0213,0.025,0.0251,0.0252,0,0,0,0,0,0,0,0,0,0,0,0,0,0.0161,0.0161,0.014,0.014,0.014,0.0175,0.0176,0.0177,0.0212,0.0213,0.0213,0.0213,0.025,0.0251,0.0252,0,0,0,0,0,0,0,0,0,0,0,0,0,0.0173,0.0161,0.014,0.0159,0.0161,0.0175,0.0176,0.0177,0.0212,0.0213,0.0213,0.0213,0.025,0.0251,0.0252,0.0257,0,0,0.0256,0.0257,0,0,0,0,0,0,0,0,0.0173,0.0173,0.0156,0.0158,0.016,0.0186,0.0197,0.0203,0.0212,0.0197,0.0213,0.0213,0.0226,0.023,0.0241,0.0258,0.026,0.0256,0.0257,0.0258,0.0258,0,0,0,0,0,0,0,0.0172,0.0172,0.0158,0.0156,0.0159,0.0186,0.0188,0.0199,0.0213,0.0198,0.02,0.0198,0.0228,0.024,0.0242,0.026,0.0256,0.0258,0.0258,0.0259,0.0291,0.0291,0,0,0,0,0,0,0.0156,0.0171,0.0157,0.0159,0.0163,0.0185,0.0187,0.0181,0.0213,0.0217,0.0198,0.0199,0.0238,0.0241,0.0244,0.0281,0.0258,0.0259,0.026,0.0291,0.0291,0.0291,0,0,0,0,0,0,0.0157,0.0155,0.0155,0.0163,0.0164,0.0183,0.0177,0.0181,0.0193,0.0212,0.0217,0.0203,0.0238,0.0242,0.0271,0.0282,0.026,0.0261,0.0291,0.0291,0.0291,0.0337,0,0,0,0,0,0,0.0157,0.0154,0.0153,0.0162,0.0163,0.017,0.0176,0.0182,0.0189,0.0192,0.0218,0.0222,0.0238,0.0269,0.0272,0.0283,0.0262,0.029,0.0291,0.0291,0.0335,0.0338,0.0341,0,0,0,0,0,0.0158,0.0159,0.0153,0.0152,0.0158,0.017,0.0175,0.0192,0.0189,0.0201,0.0224,0.0221,0.0271,0.0271,0.0274,0.0286,0.029,0.0291,0.0291,0.0334,0.0338,0.0341,0,0,0,0,0,0,0.0166,0.0162,0.0156,0.0155,0.0161,0.0175,0.0187,0.0188,0.0215,0.0219,0.0234,0.024,0.0267,0.0264,0.0263,0.0291,0.0275,0.0276,0.0306,0.031,0.0313,0.0312,0.0263,0,0,0,0,0,0.0164,0.0166,0.0163,0.0162,0.0164,0.0171,0.0179,0.0187,0.0204,0.0216,0.0236,0.0251,0.0269,0.0281,0.0297,0.0316,0.028,0.032,0.0323,0.0325,0.0325,0.0273,0.0271,0.0291,0.0291,0.0291,0,0,0.0164,0.0164,0.0163,0.0165,0.0171,0.0193,0.0178,0.019,0.0217,0.0215,0.0263,0.0266,0.0276,0.0307,0.0316,0.0308,0.0301,0.0326,0.0328,0.0327,0.0273,0.0271,0.0269,0.0291,0.0291,0.0291,0,0,0.0178,0.0166,0.0178,0.0191,0.0199,0.0205,0.0205,0.0219,0.0236,0.027,0.0276,0.0283,0.0317,0.0328,0.0336,0.0358,0.0319,0.0356,0.0376,0.0325,0.0323,0.0321,0.0274,0.0267,0.0357,0.0358,0.0358,0,0.0182,0.0198,0.0184,0.021,0.0231,0.0211,0.0243,0.0255,0.0281,0.0297,0.0291,0.032,0.0327,0.0354,0.0367,0.0366,0.0328,0.0367,0.0329,0.0326,0.0323,0.0275,0.0267,0.036,0.0359,0.0359,0.0359,0,0.0211,0.0234,0.0244,0.0272,0.0288,0.0311,0.0321,0.0338,0.0343,0.0353,0.0373,0.0373,0.0387,0.0385,0.039,0.0376,0.0354,0.034,0.0322,0.0324,0.0274,0.0264,0.0363,0.0362,0.0361,0.0361,0,0,0.0205,0.0257,0.0264,0.03,0.0329,0.0347,0.0383,0.0412,0.0428,0.0435,0.0455,0.0469,0.0443,0.0447,0.0434,0.0392,0.034,0.036,0.0356,0.0317,0.0225,0.0206,0.0194,0.0316,0.0314,0.0313,0.0199,0,0.024,0.0307,0.0322,0.0393,0.0432,0.044,0.0476,0.0496,0.0498,0.051,0.0485,0.0496,0.0474,0.047,0.0426,0.0365,0.0317,0.0372,0.0226,0.0221,0.0207,0.0183,0.0309,0.0192,0.019,0.0188,0.0187,0,0.0272,0.0319,0.0396,0.0469,0.0484,0.0522,0.0567,0.0598,0.0598,0.0592,0.0576,0.0548,0.051,0.0475,0.0357,0.0391,0.0313,0.0252,0.0246,0.0206,0.0185,0.0187,0.0169,0.0171,0.0172,0.0173,0.0174,0,0.0293,0.0373,0.0441,0.047,0.0539,0.0579,0.0612,0.063,0.0651,0.0639,0.0631,0.0576,0.0541,0.0439,0.0325,0.0333,0.0172,0.0167,0.0075,0.0073,0.0104,0.0108,0.0067,0.0067,0.0067,0.0068,0.0068,0,0.0334,0.039,0.0461,0.0507,0.0583,0.0618,0.0676,0.0694,0.0702,0.0706,0.0674,0.064,0.0525,0.0427,0.0322,0.0168,0.0166,0.0068,0.0038,0.0127,0.0134,0.0097,0.0102,0.0063,0.0064,0.0065,0.0066,0,0.0354,0.0399,0.0483,0.057,0.0603,0.0659,0.0729,0.0749,0.0757,0.0754,0.0749,0.0677,0.054,0.042,0.024,0.0162,0.0021,-0.0033,0.0071,0.0049,-0.0045,-0.0036,-0.0151,-0.0153,-0.0155,-0.0156,-0.0157,0,0.0374,0.042,0.0528,0.0568,0.0616,0.0695,0.0738,0.0778,0.0787,0.076,0.0747,0.0641,0.0568,0.0313,0.0184,-0.0019,-0.0044,-0.0108,-0.0076,-0.0052,-0.007,-0.0059,-0.0048,-0.0159,-0.0159,-0.016,-0.016,0,0.0406,0.0439,0.0503,0.0589,0.0651,0.0713,0.0775,0.0783,0.0796,0.0808,0.0721,0.0605,0.0452,0.0282,0.013,-0.0014,-0.006,-0.0124,-0.0122,-0.0092,-0.0062,-0.0076,-0.0065,-0.0165,-0.0164,-0.0164,-0.0164,0,0.0418,0.0451,0.0519,0.0586,0.0655,0.0691,0.0741,0.0744,0.0762,0.0736,0.0695,0.0557,0.0484,0.0281,0.0135,-0.0,-0.0034,-0.0066,-0.0068,-0.0064,0.0004,0.0058,-0.0046,0,0,0,0,0,0.042,0.0434,0.0502,0.0561,0.0622,0.0661,0.0732,0.0765,0.0781,0.0718,0.0709,0.0565,0.0351,0.027,0.0125,0.01,-0.006,-0.0073,-0.0098,-0.0193,-0.0187,-0.0123,0,0,0,0,0,0,0.0408,0.0463,0.0486,0.0514,0.054,0.0604,0.0647,0.0674,0.0648,0.065,0.0544,0.0514,0.0314,0.0412,0.0109,0.0072,0.0035,-0.0159,-0.0162,-0.0196,-0.0191,-0.0186,-0.0119,0,0,0,0,0]}]]